Location: Tom
(33.0437°N, 96.9452°W)
Time: 21:14:35
(UTC-06:00)

N. Korean satellite - Pass Details

Date: 29 January 2019
Orbit: 457 x 510 km, 97.2° (Epoch: 16 February)

Event Time Altitude Azimuth Distance (km) Brightness Sun altitude
Rises 06:11:54 0° 20° (NNE) 2,576 10.4 -15.6°
Reaches altitude 10° 06:14:06 10° 29° (NNE) 1,681 9.5 -15.1°
Maximum altitude 06:17:28 37° 98° (E) 760 8.2 -14.4°
Drops below altitude 10° 06:20:46 10° 167° (SSE) 1,640 9.6 -13.7°
Sets 06:22:54 0° 176° (S) 2,504 10.4 -13.3°
